Location: Unspecified
(0.0000°N, 0.0000°E)
Time: 03:15:14
(UTC+00:00)

Amsat-Oscar-6 - Pass Details

Date: 30 April 2019
Orbit: 1448 x 1455 km, 101.8° (Epoch: 24 May)

Event Time Altitude Azimuth Distance (km) Brightness Sun altitude
Rises 03:11:06 0° 16° (NNE) 4,533 ? -39.9°
Reaches altitude 10° 03:13:52 10° 17° (NNE) 3,558 ? -39.3°
Enters shadow 03:21:15 74° 24° (NNE) 1,499 ? -37.5°
